Location: Isle of Man Observatory
(54.1776°N, 4.6264°W)
Time: 03:26:26
(UTC+02:00)

Envisat - Visible Passes

Search period start: 19 May 2026 00:00
Search period end: 29 May 2026 00:00
Orbit: 761 x 762 km, 98.4° (Epoch: 18 May)

Date Brightness Start Highest point End Pass type
(mag) Time Alt. Az. Time Alt. Az. Time Alt. Az.
19 May 5.5 03:23:09 10° ENE 03:25:12 12° E 03:27:13 10° ESE visible
19 May 3.3 05:00:02 10° NNE 05:05:06 68° ESE 05:10:09 10° S visible
20 May 4.3 04:22:26 10° NNE 04:27:06 35° E 04:31:42 10° SSE visible
21 May 5.2 03:45:19 10° NE 03:48:51 19° E 03:52:22 10° SE visible
22 May 3.7 04:45:33 10° NNE 04:50:32 53° E 04:55:29 10° S visible
23 May 4.7 04:08:06 10° NE 04:12:26 28° E 04:16:44 10° SSE visible
24 May 5.4 03:31:22 10° NE 03:34:07 14° E 03:36:52 10° ESE visible
24 May 3.2 05:08:48 10° NNE 05:13:54 79° ESE 05:18:58 10° SSW visible
25 May 4.1 04:31:08 10° NNE 04:35:56 41° E 04:40:42 10° SSE visible
26 May 5.0 03:53:51 10° NE 03:57:45 22° E 04:01:38 10° SE visible
27 May 5.6 03:17:59 10° ENE 03:19:21 11° E 03:20:43 10° E visible
27 May 3.5 04:54:18 10° NNE 04:59:21 62° ESE 05:04:22 10° S visible
28 May 4.5 04:16:45 10° NNE 04:21:18 32° E 04:25:49 10° SSE visible
